Showing default

BALKAN-2, 69024

Orbit data source: Space-Track

BALKAN-2, 69024 is a payload satellite owned by Endurosat (BG) in SSO that was launched on Sun, 03 May 2026 UTC via an FALCON 9 launch vehicle from the Air Force Western Test Range (AFWTR). Payload-class satellites include a variety of spacecraft equipped with specific instruments for various scientific and technological missions. These include communications satellites like Starlink; space stations such as the ISS; scientific satellites like the Hubble; Earth observation satellites from companies like Planet Labs, Umbra, and HawkEye 360; GPS; miniature CubeSats for education and research; and military/defense satellites.

Loading next visibility...
Identifier
69024, 2026-100AW
Orbit
SSO
Country
Flag of BGBG / BGR
Related business
Manufacturer
Endurosat
Mission
Operational Commercial Imaging
Bus & Motor
CUBESAT 16U, Unknown motor
Mass
32 kg wet, 32 kg dry
Launch date (UTC)
2026-05-03 (5 months ago)
Launch vehicle
FALCON 9
Launch site
Air Force Western Test Range (AFWTR)
Object type
Payload
Rocket body
Debris
Shape & HBR
Box + 2 Pan, 0.3 m
Radar Cross Section
0.124 m², Medium (>0.1 m² and < 1m²)

Expand to show TLE details & history
Last TLE update: 18 hours ago

TLE from 18 hours ago
0 BALKAN-2
1 69024U 26100AW  26265.69781232  .00003549  00000-0  16352-3 0  9990
2 69024  97.3928 161.7315 0004173  42.5088 317.6470 15.20916847 21629
Epoch: 2026-09-22T16:44Z
TLE epoch observation values (Epoch: 2026-09-22T16:44:50.984Z)
Latitude
-0.00004°
Longitude
-91.04049°
Altitude
504.044 km
Speed
7.613 km/s
True Right ascension
10h 46m 55s
True Declination
0° 00' 00"
Sunlit
Object was in daylight at epoch
Visualization orbit readout
Latitude
Unknown
Longitude
Unknown
Altitude
Unknown
Speed
Unknown
Apparent Right ascension
Unknown
Apparent Declination
Unknown
Sunlit
N/A
Visualization observer readout
Local Sidereal Time
04:07:51
Azimuth
Unknown
Elevation
Unknown
Doppler factor
Unknown
Orbital elements
Apogee altitude
502.908 km
Perigee altitude
497.168 km
Semi-major axis
6,878.175 km
Eccentricity
0.00042
Inclination
97.3928°
RAAN
161.7315°
Arg. of periapsis
42.5088°
True anomaly
317.61477°
Mean anomaly
317.647°
Eccentric anomaly
317.63089°
Mean motion
3.80481 °/min
Orbital period
94.62 mins
BSTAR
0.00016352
Loading maneuver chart data...
Computing Atmospheric mass density...
Loading historical data...
Loading historical data...
Loading historical data...
Loading historical data...
Loading historical data...
Loading historical data...
Loading historical data...

Documentation

Showing up to 5 results
|